Regional Weather Roundup
Issued by NWS

Home | Current Version | Previous Version | Graphics & Text | Print | Product List | Glossary On
Versions: 1 2 3 4 5 6 7 8 9 10 11 12 13 14 15 16 17 18 19 20 21 22 23 24 25 26 27 28 29 30 31 32 33 34 35 36 37 38 39 40 41 42 43 44 45 46 47 48 49 50
183
ASUS43 KMPX 171601
RWRMN
WEATHER ROUNDUP FOR MINNESOTA
NATIONAL WEATHER SERVICE TWIN CITIES/CHANHASSEN MN
1000 AM CST SAT FEB 17 2018


NOTE: "FAIR" INDICATES FEW OR NO CLOUDS BELOW 12,000 FEET WITH NO
SIGNIFICANT WEATHER AND/OR OBSTRUCTIONS TO VISIBILITY. N/A MEANS
CURRENT SKY AND/OR WEATHER CONDITIONS ARE NOT AVAILABLE.

MNZ060>063-068>070-171700-
   Twin Cities Metro

CITY           SKY/WX    TMP DP  RH WIND       PRES   REMARKS
TWIN CITIES    FAIR      26  23  88 SW7       29.89R WCI  18
ST PAUL        PTSUNNY   26  22  84 SW6       29.90S WCI  19
CRYSTAL        FAIR      27  21  78 W9        29.87R WCI  18
BLAINE         PTSUNNY   28  23  80 SW6       29.87S WCI  22
LAKEVILLE      MIX PCPN  25  21  86 SW6       29.88S WCI  18
EDEN PRAIRIE   CLOUDY    27  22  81 SW7       29.88R WCI  19
SOUTH ST PAUL  FAIR      27  22  82 SW6       29.89R WCI  20
LAKE ELMO      PTSUNNY   27  23  86 SW6       29.88F WCI  20
$$
MNZ001>005-007-008-013>017-022>024-027-028-171700-
   Northwest Minnesota

CITY           SKY/WX    TMP DP  RH WIND       PRES   REMARKS
BEMIDJI        FAIR      19  11  72 W10       29.79R WCI   7
HALLOCK        FAIR      14   9  79 W6        29.84R WCI   5
WARROAD        FAIR      12   5  73 W7        29.79R WCI   2
THIEF RVR FALL FLURRIES  15  10  80 W14       29.84R WCI   0
CROOKSTON      PTSUNNY   18  12  79 NW17      29.88R WCI   2
FOSSTON        FAIR      16  10  79 W12       29.82R WCI   3
DETROIT LAKES  FAIR      21  14  73 NW14      29.85R WCI   8
MOORHEAD       FAIR      21  12  68 NW16      29.90R WCI   7
PARK RAPIDS    FAIR      18  15  88 W7        29.80R WCI   9
MAHNOMEN       FAIR      16  12  82 NW14      29.83R WCI   2
$$
MNZ006-009>011-018-025>026-171700-
   North Central Minnesota

CITY           SKY/WX    TMP DP  RH WIND       PRES   REMARKS
BAUDETTE       FAIR      13   5  70 W14       29.75R WCI  -2
FLAG ISLAND    FAIR       9   1  72 NW14      29.76R WCI  -8
INTL FALLS     FAIR      17   7  64 W13       29.73R WCI   4
WASKISH        FAIR      14  10  85 W7        29.77R WCI   4
BIG FORK       FAIR      21  10  63 W7        29.74S WCI  13
LONGVILLE      FAIR      21  14  73 W10       29.80R WCI  10
GRAND RAPIDS   FAIR      20  12  71 W12       29.79R WCI   8
CRANE LAKE     FAIR      18   9  68 W7        29.74R WCI   8
ORR            FAIR      18   9  68 W8        29.70S WCI   7
COOK           PTSUNNY   19  10  68 W15       29.73S WCI   5
WALKER         FAIR      20  12  71 NW12G17   29.79R WCI   7
$$
MNZ012-019>021-037-171700-
   Northeast Minnesota

CITY           SKY/WX    TMP DP  RH WIND       PRES   REMARKS
DULUTH         FAIR      21  14  74 W15       29.76R WCI   8
ELY            FAIR      18  10  73 W14G20    29.70S WCI   4
HIBBING        FAIR      19  11  70 W6        29.74S WCI  11
EVELETH        FAIR     N/A N/A N/A W8G16     29.74F
DULUTH HARBOR  FAIR      23  16  74 SW14      29.82S WCI  11
TWO HARBORS    FAIR      25  16  68 W14G20    29.75R WCI  13
G MARAIS ARPRT FLURRIES  19   9  63 W9G17     29.65S WCI   9
$$
MNZ029>031-032-039>041-046>048-054>057-064-171700-
   West Central Minnesota

CITY           SKY/WX    TMP DP  RH WIND       PRES   REMARKS
FERGUS FALLS   FAIR      21  16  79 NW14      29.89R WCI   8
WHEATON        SUNNY     27  16  63 W12       29.93R WCI  16
MORRIS         SUNNY     27  18  69 NW10      29.89R WCI  17
ALEXANDRIA     FAIR      25  16  68 W13       29.86R WCI  14
ELBOW LAKE     FAIR      23  16  77 NW8       29.89R WCI  13
WADENA         FAIR      21  16  79 W9        29.83R WCI  11
GLENWOOD       FAIR      25  18  74 W8        29.87R WCI  16
APPLETON       CLOUDY    28  18  64 NW7       29.91R WCI  21
BENSON         MOSUNNY   27  18  69 N12       29.91R WCI  16
ORTONVILLE     MOSUNNY   27  18  69 NW14      29.91R WCI  15
MADISON        PTSUNNY   30  21  69 NW9       29.91R WCI  22
WILLMAR        FAIR      28  19  69 NW13      29.90R WCI  18
$$
MNZ033>034-036-042>043-049>051-058-059-171700-
   Central Minnesota

CITY           SKY/WX    TMP DP  RH WIND       PRES   REMARKS
ST CLOUD       FAIR      26  18  71 W8        29.86R WCI  18
SAUK CENTRE    FAIR      25  17  70 W9        29.87R WCI  16
PAYNESVILLE    FAIR      28  21  72 W8        29.87S WCI  20
AITKIN         FAIR      21  14  73 SW7       29.81S WCI  13
PINE RIVER     FAIR      19  14  79 W7        29.85R WCI  10
BRAINERD       FAIR      21  14  74 SW7       29.83R WCI  12
STAPLES        FAIR      21  16  79 W10       29.83R WCI  10
LONG PRAIRIE   FAIR      23  18  80 SW6       29.86R WCI  16
LITTLE FALLS   FAIR      27  12  54 W6        29.86  WCI  20
LITCHFIELD     FAIR      28  21  74 NW10      29.88R WCI  19
BUFFALO        FAIR      27  21  77 SW5       29.88S WCI  22
MAPLE LAKE     FAIR      29  21  73 MISG      29.87S
HUTCHINSON     FAIR      29  25  82 W10       29.88R WCI  20
$$
MNZ037-044-045-052-053-171700-
   East Central Minnesota

CITY           SKY/WX    TMP DP  RH WIND       PRES   REMARKS
PRINCETON      FAIR      28  19  69 W5        29.86R WCI  23
MORA           FAIR      25  18  74 W5        29.86S WCI  19
CAMBRIDGE        N/A     28  18  64 W7        29.87R WCI  21
RUSH CITY      FAIR      26  17  68 W6        29.86S WCI  20
MOOSE LAKE     PTSUNNY   23  16  74 W8        29.81S WCI  14
HINCKLEY       FAIR      25  18  74 W5        29.84S WCI  19
CLOQUET        FAIR      19  12  73 SW10      29.78S WCI   8
MCGREGOR       FAIR      23  18  80 SW6       29.81S WCI  16
$$
MNZ071>073-080-081-089-090-097-098-171700-
   Southwest Minnesota

CITY           SKY/WX    TMP DP  RH WIND       PRES   REMARKS
MONTEVIDEO     CLOUDY    28  19  69 N10       29.91R WCI  19
GRANITE FALLS  CLOUDY    32  23  70 W15       29.91R WCI  22
CANBY          CLOUDY    31  24  74 NW13      29.92R WCI  21
MARSHALL       CLOUDY    31  24  75 NW15      29.90R WCI  20
REDWOOD FALLS  CLOUDY    30  24  78 W15       29.88S WCI  19
OLIVIA         MOSUNNY   30  23  74 NW12G17   29.87S WCI  21
PIPESTONE      CLOUDY    25  25 100 NW10      29.89R WCI  15
WINDOM         CLOUDY    27  12  54 W10       29.88R WCI  17
WORTHINGTON    LGT SNOW  25  22  88 W16       29.88S FOG     WCI  12
JACKSON        CLOUDY    27  21  80 W13       29.89R WCI  16
TRACY          SUNNY     31  27  85 W6        29.88R WCI  25
SLAYTON        CLOUDY    26  24  94 W16       29.88S FOG     WCI  13
$$
MNZ065>067-074>077-082>085-091>093-171700-
   South Central Minnesota

CITY           SKY/WX    TMP DP  RH WIND       PRES   REMARKS
MANKATO        FLURRIES  25  21  85 SW10      29.90R WCI  15
NEW ULM        MOSUNNY   25  21  86 W12       29.89R WCI  14
ST JAMES       CLOUDY    27  23  86 SW10      29.91R WCI  17
FAIRMONT       FLURRIES  25  21  85 SW10      29.90R WCI  15
GLENCOE        CLOUDY    28  28 100 SW7       29.88R WCI  21
FARIBAULT      LGT SNOW  25  21  86 S7        29.89S WCI  17
OWATONNA       LGT SNOW  25  21  86 S13       29.88S WCI  13
WASECA         LGT SNOW  23  21  93 S13       29.90S WCI  11
ALBERT LEA     LGT SNOW  25  19  80 SW8       29.89S WCI  16
$$
MNZ078>079-086>088-094>096-171700-
   Southeast Minnesota

CITY           SKY/WX    TMP DP  RH WIND       PRES   REMARKS
ROCHESTER      SNOW      22  20  92 S15       29.88F VSB 1/2 WCI   9
RED WING       LGT SNOW  25  19  80 W6        29.90S VSB 1   WCI  18
STANTON        LGT SNOW  26  23  87 SW10      29.87F WCI  16
DODGE CENTER   LGT SNOW  21  19  93 S12       29.87S WCI   9
WINONA         MIX PCPN  25  21  86 CALM      29.92F
AUSTIN         MIX PCPN  21  19  93 S9        29.89F WCI  11
PRESTON        LGT SNOW  21  19  91 S10       29.90F WCI  10
$$
ABBREVIATIONS USED IN REMARKS
   TC - TEMPERATURES IN CELSIUS
  WCI - WIND CHILL INDEX
   HX - HEAT INDEX
  VSB - VISIBILITY
$$




USA.gov is the U.S. government's official web portal to all federal, state and local government web resources and services.